Edwards AFB North Base, CA

9:35 AM PST on November 15, 2019 (GMT -0800)
Edwards AFB North Base

Weather History for K9L2 - September, 2019

Change the Weather History Date:

Sunday, September 8, 2019

  Actual Average (WUND) Record (WUND)
Temperature  
Mean Temperature 74 °F -  
Max Temperature 88 °F - - (-1)
Min Temperature 61 °F - - (-1)
Cooling Degree Days 9    
Growing Degree Days 24 (Base 50)    
Moisture  
Dew Point 38 °F    
Average Humidity 31    
Maximum Humidity 53    
Minimum Humidity 12    
Precipitation  
Precipitation 0.00 in - - ()
Sea Level Pressure  
Sea Level Pressure 29.81 in    
Wind  
Wind Speed 17 mph ()    
Max Wind Speed 29 mph    
Max Gust Speed 40 mph    
Visibility 9.2 miles    
Events      
Averages and records for this station are not official NWS values.
T = Trace of Precipitation, MM = Missing Value Source: Averaged Metar Reports

Daily Weather History Graph

Daily Weather History Graph

Search for Another Location

Airport or City:

Astronomy

Sep. 08, 2019 Rise Set
Actual Time 6:29 AM PDT 7:08 PM PDT
Civil Twilight 6:03 AM PDT 7:34 PM PDT
Nautical Twilight 5:33 AM PDT 8:04 PM PDT
Astronomical Twilight 5:02 AM PDT 8:34 PM PDT
Moon 4:10 PM PDT (9/8) 1:23 AM PDT (9/8)
Length of Visible Light 13h 30m
Length of Day
12h 39m
Waxing Gibbous, 76% of the Moon is Illuminated
Sep 8
Waxing Gibbous
Sep 13
Full
Sep 21
Last Quarter
Sep 28
New
Oct 5
First Quarter

Hourly Weather History & Observations

Time (PDT) Temp. Dew Point Humidity Pressure Visibility Wind Dir Wind Speed Gust Speed Precip Events Conditions
12:58 AM 69.1 °F 46.2 °F 44% 29.85 in 10.0 mi West 20.7 mph 26.5 mph N/A   Clear
1:58 AM 69.3 °F 45.1 °F 42% 29.83 in 10.0 mi West 18.4 mph 27.6 mph N/A   Clear
2:58 AM 67.1 °F 45.0 °F 45% 29.83 in 10.0 mi SW 16.1 mph - N/A   Clear
3:58 AM 66.7 °F 42.6 °F 42% 29.79 in 10.0 mi SW 26.5 mph 40.3 mph N/A   Clear
4:58 AM 63.5 °F 44.6 °F 50% 29.81 in 10.0 mi WSW 28.8 mph - N/A   Clear
5:58 AM 62.2 °F 45.0 °F 53% 29.81 in 10.0 mi WSW 23.0 mph 31.1 mph N/A   Clear
6:58 AM 61.9 °F 42.4 °F 49% 29.85 in 10.0 mi SSW 15.0 mph 21.9 mph N/A   Clear
7:58 AM 64.8 °F 39.9 °F 40% 29.86 in 9.0 mi SW 13.8 mph - N/A   Clear
8:58 AM 68.9 °F 39.2 °F 34% 29.84 in 9.0 mi SW 21.9 mph - N/A   Clear
9:58 AM 73.4 °F 39.2 °F 29% 29.84 in 9.0 mi WSW 19.6 mph 23.0 mph N/A   Clear
10:58 AM 80.1 °F 34.3 °F 19% 29.83 in 8.0 mi SSW 9.2 mph 17.3 mph N/A   Clear
12:58 PM 86.2 °F 33.8 °F 15% 29.80 in 8.0 mi West 15.0 mph 23.0 mph N/A   Clear
1:58 PM 87.4 °F 33.1 °F 14% 29.79 in 8.0 mi WSW 23.0 mph 27.6 mph N/A   Clear
2:58 PM 85.6 °F 31.3 °F 14% 29.78 in 8.0 mi WSW 24.2 mph 31.1 mph N/A   Clear
3:58 PM 86.0 °F 28.2 °F 12% 29.76 in 8.0 mi WSW 24.2 mph 29.9 mph N/A   Clear
4:58 PM 84.6 °F 31.8 °F 15% 29.77 in 8.0 mi SW 19.6 mph 27.6 mph N/A   Clear
5:58 PM 80.8 °F 36.1 °F 20% 29.77 in 8.0 mi WSW 23.0 mph 28.8 mph N/A   Clear
6:58 PM 75.4 °F 37.0 °F 25% 29.78 in 8.0 mi SW 24.2 mph 28.8 mph N/A   Clear
7:58 PM 71.2 °F 40.1 °F 32% 29.81 in 10.0 mi SW 20.7 mph 26.5 mph N/A   Clear
8:58 PM 69.6 °F 39.7 °F 34% 29.81 in 10.0 mi WSW 18.4 mph - N/A   Clear
9:58 PM 68.5 °F 36.0 °F 30% 29.81 in 10.0 mi SW 13.8 mph - N/A   Clear
10:58 PM 68.2 °F 32.0 °F 26% 29.81 in 10.0 mi SW 10.4 mph - N/A   Clear
11:58 PM 64.9 °F 30.2 °F 27% 29.80 in 10.0 mi South 12.7 mph - N/A   Clear